Location: Linz
(48.3300°N, 14.3000°E)
Time: 12:10:51
(UTC+01:00)

ISS - Pass Details

Date: 12 November 2017
Orbit: 402 x 407 km, 51.6° (Epoch: 23 November)

Event Time Altitude Azimuth Distance (km) Brightness Sun altitude
Exits shadow 05:52:20 22° 291° (WNW) 950 -2.6 -12.3°
Maximum altitude 05:54:20 85° 205° (SSW) 408 -3.9 -12.0°
Drops below altitude 10° 05:57:35 10° 115° (ESE) 1,453 0.4 -11.4°
Sets 05:59:39 0° 115° (ESE) 2,310 1.9 -11.1°
